Regional Weather Roundup
Issued by NWS Cleveland, OH

Home | Current Version | Previous Version | Text Only | Print | Product List | Glossary Off
Versions: 1 2 3 4 5 6 7 8 9 10 11 12 13 14 15 16 17 18 19 20 21 22 23 24 25 26 27 28 29 30 31 32 33 34 35 36 37 38 39 40 41 42 43 44 45 46 47 48 49 50

000
ASUS41 KCLE 310400
RWRCLE
OHIO REGIONAL WEATHER ROUNDUP
NATIONAL WEATHER SERVICE WILMINGTON, OH
1200 AM EDT SUN JUL 31 2016

NOTE: "FAIR" INDICATES FEW OR NO CLOUDS BELOW 12,000 FEET WITH NO
SIGNIFICANT WEATHER AND/OR OBSTRUCTIONS TO VISIBILITY.

OHZ001>008-015>018-024>027-034-035-043-044-310500-
   NORTHWEST OHIO

CITY           SKY/WX    TMP DP  RH WIND       PRES   REMARKS
DEFIANCE       FAIR      70  67  90 N5        29.99R
FINDLAY        FAIR      74  67  78 E5        29.97R
TOLEDO EXPRESS FAIR      71  71 100 N6        29.98S
TOLEDO EXEC    LGT RAIN  74  71  91 NE5       29.98F
LIMA           FAIR      71  69  93 CALM      29.98R
$$

OHZ009>014-019>023-028>033-038-089-310500-
   NORTHEAST OHIO

CITY           SKY/WX    TMP DP  RH WIND       PRES   REMARKS
CLE-HOPKINS    FAIR      70  65  84 CALM      29.99S
CLE-LAKEFRONT  FAIR      73  67  81 S5        29.96S
CUY CO. ARPT   NOT AVBL
LORAIN-ELYRIA  FAIR      67  65  93 CALM      29.98S FOG
ASHTABULA      FAIR      68  68 100 E3        29.98F FOG
AKRON-CANTON   FAIR      70  65  84 SE3       29.99S
WOOSTER        NOT AVBL
MANSFIELD      FAIR      71  67  87 S7        30.00S
YOUNGSTOWN     FAIR      66  66 100 E5        29.99S FOG
$$

OHZ042-051>053-060>062-070>072-077>081-310500-
  SOUTHWEST OHIO

CITY           SKY/WX    TMP DP  RH WIND       PRES   REMARKS
CINC-COVINGTON FAIR      75  72  90 SW3       29.99S
CINC-LUNKEN    FAIR      72  72 100 CALM      29.98S
HAMILTON       FAIR      70  67  90 CALM      29.99R
DAYTON         NOT AVBL
WRIGHT-PAT AFB FAIR      73  70  89 E5        29.98R
DAYTON GENERAL FAIR      76  64  66 CALM      29.98R
WILMINGTON     FAIR      74  70  87 W7        29.99R
$$

OHZ036-037-039>041-045>050-054>059-063>069-073>076-082>088-310500-
  CENTRAL AND SOUTHEAST OHIO

CITY           SKY/WX    TMP DP  RH WIND       PRES   REMARKS
COLUMBUS       FAIR      71  68  90 E6        29.97S
OSU AIRPORT    FAIR      70  69  97 CALM      29.98S
BOLTON FIELD   NOT AVBL
RICKENBACK AFB NOT AVBL
NEWARK         LGT RAIN  71  69  93 W5        29.99R
MARION         MOCLDY    71  68  90 SE5       29.99R
LANCASTER      MOCLDY    70  68  93 CALM      29.99R
ZANESVILLE     FAIR      72  68  87 CALM      29.99R
NEW PHILLY     CLOUDY    73  69  87 CALM      29.99S FOG
$$




USA.gov is the U.S. government's official web portal to all federal, state and local government web resources and services.